TimeCST,TemperatureF,Dew PointF,Humidity,Sea Level PressureIn,VisibilityMPH,Wind Direction,Wind SpeedMPH,Gust SpeedMPH,PrecipitationIn,Events,Conditions,WindDirDegrees,DateUTC
12:55 AM,69.8,64.4,83,29.77,9.0,WNW,21.9,-,N/A,,Overcast,290,2013-01-13 06:55:00
1:55 AM,59.0,57.2,94,29.78,3.0,NW,5.8,-,N/A,,Overcast,310,2013-01-13 07:55:00
2:15 AM,57.2,57.2,100,29.80,2.0,NW,10.4,-,N/A,,Overcast,320,2013-01-13 08:15:00
2:35 AM,53.6,53.6,100,29.82,5.0,NW,13.8,-,N/A,,Overcast,310,2013-01-13 08:35:00
2:55 AM,51.8,51.8,100,29.82,3.0,North,15.0,-,N/A,,Overcast,350,2013-01-13 08:55:00
3:15 AM,48.2,48.2,100,29.84,5.0,North,9.2,-,N/A,,Overcast,360,2013-01-13 09:15:00
3:35 AM,46.4,46.4,100,29.84,4.0,North,6.9,-,N/A,,Overcast,360,2013-01-13 09:35:00
3:55 AM,46.4,46.4,100,29.85,4.0,North,11.5,-,N/A,,Overcast,350,2013-01-13 09:55:00
4:15 AM,44.6,44.6,100,29.88,4.0,NNW,9.2,-,N/A,,Overcast,330,2013-01-13 10:15:00
4:35 AM,44.6,44.6,100,29.88,5.0,NNW,6.9,-,N/A,,Overcast,330,2013-01-13 10:35:00
4:55 AM,42.8,42.8,100,29.88,4.0,North,4.6,-,N/A,,Overcast,350,2013-01-13 10:55:00
5:55 AM,41.0,39.2,93,29.88,4.0,NNW,13.8,-,N/A,Rain,Rain,340,2013-01-13 11:55:00
6:55 AM,41.0,39.2,93,29.89,6.0,North,9.2,-,N/A,Rain,Rain,360,2013-01-13 12:55:00
7:55 AM,39.2,39.2,100,29.92,5.0,NNW,12.7,-,N/A,Rain,Rain,330,2013-01-13 13:55:00
8:55 AM,39.2,39.2,100,29.98,6.0,NNW,11.5,-,N/A,Rain,Rain,340,2013-01-13 14:55:00
9:55 AM,39.2,39.2,100,29.96,6.0,NNW,10.4,-,N/A,,Overcast,340,2013-01-13 15:55:00
10:55 AM,39.2,37.4,93,29.99,6.0,NNW,11.5,-,N/A,Rain,Rain,330,2013-01-13 16:55:00
11:55 AM,37.4,37.4,100,30.00,5.0,NNW,10.4,-,N/A,Rain,Rain,340,2013-01-13 17:55:00
12:55 PM,39.2,37.4,93,29.99,4.0,NNW,13.8,-,N/A,Rain,Rain,340,2013-01-13 18:55:00
1:55 PM,39.2,37.4,93,30.02,6.0,NNW,12.7,-,N/A,Rain,Light Rain,340,2013-01-13 19:55:00
2:55 PM,37.4,35.6,93,30.08,6.0,NW,16.1,-,N/A,Rain,Light Rain,320,2013-01-13 20:55:00
3:55 PM,35.6,35.6,100,30.15,6.0,NW,11.5,-,N/A,Rain,Light Rain,310,2013-01-13 21:55:00
4:55 PM,35.6,33.8,93,30.17,10.0,NNW,9.2,-,N/A,,Overcast,330,2013-01-13 22:55:00
5:55 PM,35.6,33.8,93,30.19,10.0,NNW,10.4,-,N/A,,Overcast,340,2013-01-13 23:55:00
6:55 PM,35.6,33.8,93,30.19,10.0,North,10.4,-,N/A,,Overcast,360,2013-01-14 00:55:00
7:55 PM,35.6,30.2,81,30.22,10.0,NNW,13.8,-,N/A,,Overcast,340,2013-01-14 01:55:00
8:55 PM,33.8,30.2,87,30.24,10.0,North,4.6,-,N/A,,Mostly Cloudy,360,2013-01-14 02:55:00
9:55 PM,30.2,28.4,93,30.25,10.0,North,10.4,-,N/A,,Partly Cloudy,360,2013-01-14 03:55:00
10:55 PM,30.2,26.6,86,30.28,10.0,North,10.4,-,N/A,,Partly Cloudy,10,2013-01-14 04:55:00
11:55 PM,30.2,26.6,86,30.29,10.0,North,8.1,-,N/A,,Mostly Cloudy,360,2013-01-14 05:55:00